TimePDT,TemperatureF,Dew PointF,Humidity,Sea Level PressureIn,VisibilityMPH,Wind Direction,Wind SpeedMPH,Gust SpeedMPH,PrecipitationIn,Events,Conditions,WindDirDegrees,DateUTC
12:52 AM,55.0,39.0,55,29.89,10.0,Calm,Calm,-,N/A,,Clear,0,2013-10-20 07:52:00
1:52 AM,55.0,37.0,51,29.89,10.0,North,3.5,-,N/A,,Clear,350,2013-10-20 08:52:00
5:52 AM,50.0,35.1,57,29.88,10.0,Calm,Calm,-,N/A,,Clear,0,2013-10-20 12:52:00
6:52 AM,48.9,35.1,59,29.87,10.0,West,4.6,-,N/A,,Clear,270,2013-10-20 13:52:00
7:52 AM,55.0,37.9,53,29.88,10.0,North,3.5,-,N/A,,Clear,350,2013-10-20 14:52:00
8:52 AM,70.0,33.1,26,29.89,10.0,Calm,Calm,-,N/A,,Clear,0,2013-10-20 15:52:00
9:52 AM,79.0,30.0,17,29.88,10.0,NNW,3.5,-,N/A,,Clear,330,2013-10-20 16:52:00
10:52 AM,84.0,30.9,15,29.87,10.0,WNW,4.6,-,N/A,,Clear,300,2013-10-20 17:52:00
11:52 AM,87.1,28.0,12,29.86,10.0,Calm,Calm,-,N/A,,Clear,0,2013-10-20 18:52:00
12:52 PM,91.9,26.1,9,29.83,10.0,Variable,4.6,-,N/A,,Clear,0,2013-10-20 19:52:00
1:52 PM,91.9,34.0,13,29.80,10.0,SSE,6.9,-,N/A,,Clear,150,2013-10-20 20:52:00
2:52 PM,91.9,28.9,11,29.81,10.0,SE,6.9,-,N/A,,Clear,130,2013-10-20 21:52:00
3:52 PM,91.9,25.0,9,29.77,10.0,SE,5.8,-,N/A,,Clear,130,2013-10-20 22:52:00
4:52 PM,89.1,30.0,12,29.76,10.0,SE,5.8,-,N/A,,Clear,130,2013-10-20 23:52:00
5:52 PM,80.1,33.1,18,29.76,10.0,SSE,4.6,-,N/A,,Clear,150,2013-10-21 00:52:00
6:52 PM,69.1,37.9,32,29.77,10.0,Calm,Calm,-,N/A,,Clear,0,2013-10-21 01:52:00
7:52 PM,64.0,39.9,41,29.79,10.0,NW,3.5,-,N/A,,Clear,320,2013-10-21 02:52:00
8:52 PM,63.0,39.9,43,29.80,10.0,Calm,Calm,-,N/A,,Clear,0,2013-10-21 03:52:00
9:52 PM,60.1,39.9,47,29.81,10.0,NNE,3.5,-,N/A,,Clear,20,2013-10-21 04:52:00
10:52 PM,62.1,39.9,44,29.82,10.0,NNW,5.8,-,N/A,,Clear,330,2013-10-21 05:52:00
11:52 PM,70.0,41.0,35,29.82,10.0,NNW,5.8,-,N/A,,Clear,330,2013-10-21 06:52:00